Weather History for KDAW - April, 2013

Change the Weather History Date:

Tuesday, April 23, 2013

  Actual Average (KSFM) Record (KSFM)
Temperature  
Mean Temperature 36 °F -  
Max Temperature 41 °F 55 °F 84 °F (2008)
Min Temperature 30 °F 32 °F 26 °F (2013)
Degree Days  
Heating Degree Days 30    
Moisture  
Dew Point 34 °F    
Average Humidity 89    
Maximum Humidity 93    
Minimum Humidity 79    
Precipitation  
Precipitation 0.00 in - - ()
Sea Level Pressure  
Sea Level Pressure 30.42 in    
Wind  
Wind Speed 7 mph (NNE)    
Max Wind Speed 10 mph    
Max Gust Speed 18 mph    
Visibility 6 miles    
Events Rain    
Averages and records for this station are not official NWS values.
T = Trace of Precipitation, MM = Missing Value Source: NWS Daily Summary

Daily Weather History Graph

Daily Weather History Graph

Search for Another Location

Airport or City:

Trip Planner

Search our weather history database for the weather conditions in past years. The results will help you decide how hot, cold, wet, or windy it might be!

Date:

Astronomy

Apr. 23, 2013 Rise Set
Actual Time 5:48 AM EDT 7:36 PM EDT
Civil Twilight 5:17 AM EDT 8:06 PM EDT
Nautical Twilight 4:41 AM EDT 8:43 PM EDT
Astronomical Twilight 4:01 AM EDT 9:24 PM EDT
Moon 5:24 PM EDT (4/23) 4:18 AM EDT (4/23)
Length of Visible Light 14h 48m
Length of Day
13h 47m
Waxing Gibbous, 94% of the Moon is Illuminated
Apr 23
Waxing Gibbous
Apr 25
Full
May 2
Last Quarter
May 9
New
May 18
First Quarter

Hourly Weather History & Observations

Time (EDT) Temp. Windchill Dew Point Humidity Pressure Visibility Wind Dir Wind Speed Gust Speed Precip Events Conditions
12:51 AM 30.9 °F 27.5 °F 27.0 °F 85% 30.61 in 10.0 mi North 3.5 mph - N/A   Clear
1:51 AM 30.9 °F 26.2 °F 28.0 °F 89% 30.59 in 10.0 mi North 4.6 mph - N/A   Clear
2:51 AM 30.9 °F 26.2 °F 28.0 °F 89% 30.57 in 10.0 mi North 4.6 mph - N/A   Scattered Clouds
3:00 AM 32.0 °F 27.5 °F 28.4 °F 87% 30.56 in 10.0 mi North 4.6 mph - N/A   Mostly Cloudy
3:51 AM 32.0 °F 27.5 °F 28.0 °F 85% 30.55 in 10.0 mi North 4.6 mph - N/A   Overcast
4:51 AM 33.1 °F 27.7 °F 28.9 °F 85% 30.54 in 10.0 mi North 5.8 mph - N/A   Overcast
5:51 AM 34.0 °F 28.8 °F 30.0 °F 85% 30.53 in 10.0 mi North 5.8 mph - N/A   Overcast
6:51 AM 35.1 °F 30.1 °F 30.0 °F 82% 30.53 in 10.0 mi North 5.8 mph - N/A   Overcast
7:51 AM 36.0 °F 30.3 °F 30.0 °F 79% 30.53 in 10.0 mi NNE 6.9 mph - N/A   Overcast
8:35 AM 35.6 °F 29.2 °F 30.2 °F 81% 30.52 in 10.0 mi North 8.1 mph - N/A   Overcast
8:51 AM 36.0 °F 30.3 °F 30.9 °F 82% 30.52 in 9.0 mi NE 6.9 mph - N/A   Overcast
9:20 AM 35.6 °F 29.2 °F 32.0 °F 87% 30.51 in 2.0 mi NNE 8.1 mph - N/A   Overcast
9:37 AM 35.6 °F 29.2 °F 33.8 °F 93% 30.50 in 3.0 mi NNE 8.1 mph - N/A   Overcast
9:51 AM 37.0 °F 31.0 °F 33.1 °F 86% 30.50 in 6.0 mi NNE 8.1 mph - N/A   Overcast
10:51 AM 37.9 °F 32.1 °F 34.0 °F 86% 30.48 in 6.0 mi North 8.1 mph - N/A   Overcast
11:06 AM 37.4 °F 32.8 °F 33.8 °F 87% 30.48 in 2.5 mi NNE 5.8 mph - N/A   Overcast
11:19 AM 37.4 °F 32.1 °F 33.8 °F 87% 30.48 in 3.0 mi NNE 6.9 mph - N/A   Overcast
11:51 AM 37.9 °F 34.4 °F 34.0 °F 86% 30.48 in 6.0 mi NE 4.6 mph - N/A   Overcast
12:51 PM 39.0 °F 32.8 °F 36.0 °F 89% 30.44 in 5.0 mi NE 9.2 mph - N/A   Overcast
1:10 PM 39.2 °F 34.2 °F 35.6 °F 87% 30.43 in 2.5 mi NE 6.9 mph - N/A   Overcast
1:51 PM 39.9 °F 35.8 °F 37.0 °F 89% 30.42 in 2.0 mi NE 5.8 mph - N/A   Overcast
2:19 PM 39.2 °F 33.0 °F 37.4 °F 93% 30.41 in 3.0 mi ENE 9.2 mph 17.3 mph N/A   Overcast
2:27 PM 39.2 °F 32.5 °F 37.4 °F 93% 30.40 in 2.5 mi East 10.4 mph - N/A   Overcast
2:51 PM 39.9 °F 34.5 °F 37.9 °F 93% 30.39 in 2.0 mi ENE 8.1 mph - N/A   Overcast
3:09 PM 39.2 °F 32.5 °F 37.4 °F 93% 30.38 in 2.5 mi NE 10.4 mph 18.4 mph N/A   Overcast
3:47 PM 39.2 °F 33.0 °F 37.4 °F 93% 30.36 in 4.0 mi ENE 9.2 mph 16.1 mph N/A   Overcast
3:51 PM 39.9 °F 35.1 °F 37.9 °F 93% 30.36 in 4.0 mi Variable 6.9 mph - N/A   Overcast
4:07 PM 39.2 °F 32.5 °F 37.4 °F 93% 30.35 in 4.0 mi NE 10.4 mph - N/A   Overcast
4:51 PM 39.9 °F 33.4 °F 37.9 °F 93% 30.35 in 4.0 mi NE 10.4 mph 16.1 mph N/A   Overcast
5:51 PM 39.9 °F 33.9 °F 37.9 °F 93% 30.33 in 7.0 mi NE 9.2 mph - 0.00 in   Overcast
6:51 PM 39.9 °F 33.4 °F 37.0 °F 89% 30.30 in 10.0 mi NNE 10.4 mph 17.3 mph N/A   Overcast
7:08 PM 39.2 °F 33.0 °F 37.4 °F 93% 30.30 in 10.0 mi NNE 9.2 mph - N/A   Overcast
7:51 PM 39.9 °F 35.1 °F 37.9 °F 93% 30.29 in 10.0 mi NNE 6.9 mph - N/A   Overcast
8:51 PM 39.9 °F 33.9 °F 37.9 °F 93% 30.25 in 10.0 mi NE 9.2 mph - N/A   Overcast
9:51 PM 39.9 °F 33.9 °F 37.9 °F 93% 30.24 in 8.0 mi North 9.2 mph - N/A   Overcast
10:51 PM 41.0 °F 35.8 °F 39.0 °F 93% 30.20 in 10.0 mi North 8.1 mph - N/A   Overcast
11:42 PM 41.0 °F 35.2 °F 39.2 °F 93% 30.19 in 2.5 mi North 9.2 mph - N/A   Overcast
11:51 PM 41.0 °F 35.2 °F 39.0 °F 93% 30.18 in 2.0 mi North 9.2 mph - 0.00 in Rain Light Rain